Regional Weather Roundup
Issued by NWS

Home | Current Version | Previous Version | Graphics & Text | Print | Product List | Glossary On
Versions: 1 2 3 4 5 6 7 8 9 10 11 12 13 14 15 16 17 18 19 20 21 22 23 24 25 26 27 28 29 30 31 32 33 34 35 36 37 38 39 40 41 42 43 44 45 46 47 48 49 50
000
ASUS43 KLSX 210607
RWRMO

WEATHER SUMMARY FOR MISSOURI
NATIONAL WEATHER SERVICE SPRINGFIELD MO
100 AM CDT TUE APR 21 2015

NOTE: "FAIR" INDICATES FEW OR NO CLOUDS BELOW 12,000 FEET WITH NO
       SIGNIFICANT WEATHER AND/OR OBSTRUCTIONS TO VISIBILITY.
       CURRENT SKY AND/OR WEATHER CONDITIONS ARE NOT AVAILABLE FOR
       CHILLICOTHE AND FARMINGTON.

MOZ001>031-035>038-043-044-053-054-210700-
...NORTHERN AND WESTERN MISSOURI...

CITY           SKY/WX    TMP DP  RH WIND       PRES   REMARKS
KANSAS CTY INT FAIR      44  30  57 W8        29.85S
6HR MIN TEMP:  43; 6HR MAX TEMP:  56;

KANSAS C DTWN  FAIR      50  29  44 SW7       29.85S
6HR MIN TEMP:  50; 6HR MAX TEMP:  58;

LEE`S SUMMIT   FAIR      43  31  62 SW7       29.86S
6HR MIN TEMP:  43; 6HR MAX TEMP:  56;

ST JOSEPH      FAIR      46  29  51 W12       29.84S
6HR MIN TEMP:  44; 6HR MAX TEMP:  56;

CHILLICOTHE      N/A     46  29  51 SW5       29.83R
6HR MIN TEMP:  43; 6HR MAX TEMP:  57;

KIRKSVILLE     FAIR      45  26  47 SW7       29.78S
6HR MIN TEMP:  44; 6HR MAX TEMP:  53;


$$
MOZ066>068-077>081-088>096-101>105-210700-
...SOUTHWEST MISSOURI...

CITY           SKY/WX    TMP DP  RH WIND       PRES   REMARKS
SPRINGFIELD    FAIR      42  32  67 SW8       29.92S
6HR MIN TEMP:  41; 6HR MAX TEMP:  56;

JOPLIN         FAIR      42  36  79 S8        29.94R
6HR MIN TEMP:  42; 6HR MAX TEMP:  57;


$$
MOZ032>034-039>042-045>050-055>058-069>072-210700-
...CENTRAL MISSOURI...

CITY           SKY/WX    TMP DP  RH WIND       PRES   REMARKS
COLUMBIA       FAIR      45  29  53 SW9       29.84R
6HR MIN TEMP:  43; 6HR MAX TEMP:  55;

JEFFERSON CITY FAIR      47  27  45 CALM      29.86R
6HR MIN TEMP:  47; 6HR MAX TEMP:  56;

ROLLA          FAIR      41  27  57 SW12      29.86S
6HR MIN TEMP:  40; 6HR MAX TEMP:  53;

SEDALIA        FAIR      47  31  53 SW8       29.87S
6HR MIN TEMP:  47; 6HR MAX TEMP:  55;

WHITEMAN AFB   FAIR      47  31  52 W8        29.85S
WARRENSBURG    FAIR      43  32  65 SW6       29.86S
OSAGE BEACH    FAIR      46  25  42 SW8       29.88S

$$
MOZ051-052-059>065-210700-
...EAST CENTRAL MISSOURI...

CITY           SKY/WX    TMP DP  RH WIND       PRES   REMARKS
ST LOUIS INTL  FAIR      49  29  46 SW10      29.83S
6HR MIN TEMP:  49; 6HR MAX TEMP:  56;

SPIRIT OF STL  FAIR      47  29  49 SW8       29.83S
6HR MIN TEMP:  45; 6HR MAX TEMP:  55;

ST CHARLES     FAIR      47  32  56 W5        29.81S
6HR MIN TEMP:  42; 6HR MAX TEMP:  54;


$$
MOZ072>076-082>087-097>100-106>115-210700-
...SOUTH CENTRAL AND SOUTHEAST MISSOURI...

CITY           SKY/WX    TMP DP  RH WIND       PRES   REMARKS
CAPE GIRARDEAU FAIR      46  40  79 SW6       29.91R
6HR MIN TEMP:  46; 6HR MAX TEMP:  59;

FARMINGTON     FAIR      43  30  61 W3        29.91F
6HR MIN TEMP:  43; 6HR MAX TEMP:  55;

POPLAR BLUFF   FAIR      49  33  54 SW5       29.92S
6HR MIN TEMP:  48; 6HR MAX TEMP:  61;

WEST PLAINS    FAIR      43  29  57 SW6       29.94S
6HR MIN TEMP:  43; 6HR MAX TEMP:  56;


$$


USA.gov is the U.S. government's official web portal to all federal, state and local government web resources and services.